Regional Weather Roundup
Issued by NWS

Home | Current Version | Previous Version | Graphics & Text | Print | Product List | Glossary On
Versions: 1 2 3 4 5 6 7 8 9 10 11 12 13 14 15 16 17 18 19 20 21 22 23 24 25 26 27 28 29 30 31 32 33 34 35 36 37 38 39 40 41 42 43 44 45 46 47 48 49
000
ASUS43 KDMX 202007
RWRIA

WEATHER ROUNDUP FOR IOWA
NATIONAL WEATHER SERVICE DES MOINES IA
300 PM CDT SAT SEP 20 2014

NOTE: "FAIR" INDICATES FEW OR NO CLOUDS BELOW 12,000 FEET WITH NO
SIGNIFICANT WEATHER AND/OR OBSTRUCTIONS TO VISIBILITY.

* - THESE STATIONS ARE NOT NWS STATIONS...THUS NOT UNDER NWS
QUALITY CONTROL.  THEY ALSO DO NOT REPORT WEATHER SUCH
AS PRECIPITATION OR FOG.

IAZ001>003-012>014-020>022-031>034-043>046-202100-
   NORTHWEST IOWA

CITY           SKY/WX    TMP DP  RH WIND       PRES   REMARKS
CARROLL *      SUNNY     82  59  44 W14       29.89S HX  82
CHEROKEE *     SUNNY     81  57  44 W14       29.89S HX  81
DENISON *      SUNNY     81  59  47 NW10      29.89F HX  81
LE MARS *      SUNNY     82  57  42 W9        29.90F HX  82
ORANGE CITY *  SUNNY     82  52  34 W16       29.90S HX  81
SHELDON *      SUNNY     81  57  44 W16G23    29.87F HX  81
SIOUX CITY     SUNNY     84  56  38 NW9G16    29.91F HX  83
SPENCER        SUNNY     82  55  39 W16G26    29.87S HX  81
STORM LAKE *   SUNNY     81  63  54 W13G18    29.90S HX  82
$$

IAZ055>058-069>071-079>083-090>094-202100-
   SOUTHWEST IOWA

CITY           SKY/WX    TMP DP  RH WIND       PRES   REMARKS
ATLANTIC *     MOSUNNY   82  66  57 NW13G20   29.89F HX  85
AUDUBON *      SUNNY     82  57  42 NW7G17    29.91F HX  82
CLARINDA *     SUNNY     81  70  69 W13       29.93F HX  84
COUNCIL BLFS * SUNNY     84  68  58 W7G14     29.91F HX  87
CRESTON *      MOSUNNY   79  68  69 W13G21    29.92R HX  81
HARLAN  *      SUNNY     82  61  47 NW13G21   29.94F HX  83
LAMONI         PTSUNNY   78  68  71 W14       29.92F HX  80
RED OAK *      MOSUNNY   82  68  61 W9G16     29.92S HX  85
SHENANDOAH *   SUNNY     82  68  61 W10G16    29.92F HX  85
$$

IAZ047>049-059>061-072>074-084-202100-
   CENTRAL IOWA

CITY           SKY/WX    TMP DP  RH WIND       PRES   REMARKS
AMES           SUNNY     83  62  49 NW14G20   29.85F HX  84
ANKENY *       SUNNY     82  66  57 NW10G18   29.85F HX  85
CHARITON *     MOSUNNY   79  68  69 W14G21    29.89F HX  81
DES MOINES     MOSUNNY   84  65  52 W15       29.86F HX  86
GRINNELL*      MOSUNNY   81  66  61 W15       29.86S HX  83
KNOXVILLE *    SUNNY     81  66  61 SW13G18   29.86R HX  83
MARSHALLTOWN   MOSUNNY   82  61  48 W17G23    29.83F HX  83
PELLA *        MOSUNNY   81  68  65 W8        29.88R HX  83
PERRY *          N/A     84  59  42 NW13G22   29.87F HX  84
$$

IAZ004>006-015-016-023>025-035-036-202100-
   NORTH CENTRAL IOWA

CITY           SKY/WX    TMP DP  RH WIND       PRES   REMARKS
ALGONA *       MOSUNNY   81  55  41 W17G26    29.86S HX  80
CLARION *        N/A     81  57  44 NW14G22   29.85S HX  81
ESTHERVILLE    SUNNY     80  54  40 W16G23    29.85S HX  80
FORT DODGE *   MOSUNNY   81  57  44 W10G20    29.87S HX  81
MASON CITY     SUNNY     79  57  46 W15       29.84F HX  80
FOREST CITY *  MOSUNNY   79  55  44 W18G25    29.84S
IOWA FALLS *     N/A     82  55  39 W18G24    29.85F HX  82
$$

IAZ007>011-017>019-026>030-037>042-050>054-066-202100-
   NORTHEAST IOWA

CITY           SKY/WX    TMP DP  RH WIND       PRES   REMARKS
CEDAR RAPIDS   MOSUNNY   77  67  71 W10       29.83S
CHARLES CITY * SUNNY     79  55  44 W13G24    29.82F
CLINTON *      CLOUDY    72  68  88 S9        29.83F
DECORAH *      MOSUNNY   77  59  53 NW10G21   29.79F
DUBUQUE        MOSUNNY   74  65  73 SW16      29.81F
MONTICELLO *   SUNNY     77  66  69 SW13      29.81F
OELWEIN *      MOSUNNY   77  64  65 W12G17    29.82F
WATERLOO       SUNNY     81  60  48 W14       29.80F HX  82
$$

IAZ064-065-067-068-078-202100-
   EAST CENTRAL IOWA

CITY           SKY/WX    TMP DP  RH WIND       PRES   REMARKS
DAVENPORT      CLOUDY    76  66  71 SW12      29.83F
IOWA CITY      MOSUNNY   78  68  71 SW8       29.84F HX  80
MT. PLEASANT * CLOUDY    79  64  61 SW9       29.87F HX  81
MUSCATINE *    SUNNY     77  68  73 S8        29.83F
QUAD CITIES    CLOUDY    75  67  76 S6        29.83F
$$

IAZ062-063-075>077-085>089-095>099-202100-
   SOUTHEAST IOWA

CITY           SKY/WX    TMP DP  RH WIND       PRES   REMARKS
BURLINGTON     CLOUDY    80  70  71 W12       29.88F HX  83
FAIRFIELD *    MOSUNNY   77  66  69 SW10G17   29.87F
FORT MADISON * MOSUNNY   81  68  65 SW10      29.90F HX  83
KEOKUK *       CLOUDY    77  70  78 W10       29.90F
OSKALOOSA *      N/A     81  68  65 SW16      29.86F HX  83
CENTERVILLE *  MOSUNNY   81  68  65 SW13      29.93S HX  83
OTTUMWA        PTSUNNY   80  67  64 SW13G21   29.86F HX  82
WASHINGTON *   SUNNY     79  68  69 SW8G14    29.85F HX  81
$$

ABBREVIATIONS USED IN REMARKS
   TC - TEMPERATURES IN CELSIUS
  WCI - WIND CHILL INDEX
   HX - HEAT INDEX
  VSB - VISIBILITY
$$



USA.gov is the U.S. government's official web portal to all federal, state and local government web resources and services.